| time (UTC) | temp C | wind direction | speed KPH | gust KPH | rain 1hr cm | rain 24hr cm | rain mn cm | humidity % | barometer mb |
| 20260503212055 | 26 | 360 | 4.8 | 12.9 | 0.00 | 0.00 | 0.00 | 38 | 1012.2 |
| 20260503211604 | 25 | 90 | 4.8 | 12.9 | 0.00 | 0.00 | 0.00 | 39 | 1012.2 |
| 20260503211054 | 25 | 0 | 3.2 | 16.1 | 0.00 | 0.00 | 0.00 | 40 | 1012.1 |
| 20260503210555 | 25 | 49 | 6.4 | 16.1 | 0.00 | 0.00 | 0.00 | 40 | 1012.2 |
| 20260503210055 | 25 | 0 | 1.6 | 9.7 | 0.00 | 0.00 | 0.00 | 43 | 1012.2 |
| 20260503205555 | 25 | 0 | 4.8 | 12.9 | 0.00 | 0.00 | 0.00 | 42 | 1012.3 |
| 20260503205054 | 25 | 339 | 3.2 | 12.9 | 0.00 | 0.00 | 0.00 | 41 | 1012.3 |
| 20260503204555 | 25 | 9 | 3.2 | 12.9 | 0.00 | 0.00 | 0.00 | 43 | 1012.5 |
| 20260503204055 | 25 | 0 | 3.2 | 12.9 | 0.00 | 0.00 | 0.00 | 48 | 1012.6 |
| 20260503203554 | 25 | 13 | 4.8 | 12.9 | 0.00 | 0.00 | 0.00 | 44 | 1012.6 |
| 20260503203055 | 24 | 321 | 1.6 | 12.9 | 0.00 | 0.00 | 0.00 | 45 | 1012.6 |
| 20260503202555 | 24 | 301 | 4.8 | 12.9 | 0.00 | 0.00 | 0.00 | 45 | 1012.7 |
| 20260503202055 | 24 | 236 | 3.2 | 12.9 | 0.00 | 0.00 | 0.00 | 45 | 1012.7 |
| 20260503201558 | 23 | 0 | 3.2 | 11.3 | 0.00 | 0.00 | 0.00 | 47 | 1012.7 |
| 20260503201051 | 23 | 0 | 1.6 | 9.7 | 0.00 | 0.00 | 0.00 | 48 | 1012.8 |
| 20260503200555 | 23 | 341 | 4.8 | 9.7 | 0.00 | 0.00 | 0.00 | 47 | 1012.9 |
| 20260503200056 | 23 | 0 | 1.6 | 12.9 | 0.00 | 0.00 | 0.00 | 47 | 1013.0 |
| 20260503195555 | 23 | 71 | 3.2 | 14.5 | 0.00 | 0.00 | 0.00 | 47 | 1013.0 |
| 20260503195055 | 23 | 324 | 4.8 | 14.5 | 0.00 | 0.00 | 0.00 | 49 | 1013.2 |
| 20260503194554 | 22 | 276 | 3.2 | 9.7 | 0.00 | 0.00 | 0.00 | 50 | 1013.2 |
| 20260503194055 | 22 | 286 | 3.2 | 9.7 | 0.00 | 0.00 | 0.00 | 53 | 1013.3 |
| 20260503193059 | 22 | 5 | 3.2 | 9.7 | 0.00 | 0.00 | 0.00 | 51 | 1013.5 |
| 20260503192555 | 22 | 82 | 0.0 | 9.7 | 0.00 | 0.00 | 0.00 | 51 | 1013.6 |
| 20260503192058 | 22 | 271 | 4.8 | 9.7 | 0.00 | 0.00 | 0.00 | 52 | 1013.7 |
| 20260503191553 | 21 | 318 | 3.2 | 12.9 | 0.00 | 0.00 | 0.00 | 51 | 1013.7 |
| 20260503191058 | 21 | 221 | 6.4 | 16.1 | 0.00 | 0.00 | 0.00 | 51 | 1013.7 |
| 20260503190635 | 21 | 360 | 6.4 | 16.1 | 0.00 | 0.00 | 0.00 | 51 | 1013.8 |
| 20260503190057 | 21 | 318 | 4.8 | 14.5 | 0.00 | 0.00 | 0.00 | 51 | 1013.8 |
| 20260503185554 | 21 | 213 | 1.6 | 16.1 | 0.00 | 0.00 | 0.00 | 50 | 1013.8 |
| 20260503185055 | 21 | 342 | 6.4 | 16.1 | 0.00 | 0.00 | 0.00 | 51 | 1013.9 |
| 20260503184606 | 21 | 0 | 1.6 | 16.1 | 0.00 | 0.00 | 0.00 | 53 | 1013.9 |
| 20260503184054 | 21 | 322 | 3.2 | 12.9 | 0.00 | 0.00 | 0.00 | 53 | 1014.0 |
| 20260503183555 | 20 | 323 | 4.8 | 12.9 | 0.00 | 0.00 | 0.00 | 54 | 1014.0 |
| 20260503183054 | 20 | 244 | 1.6 | 9.7 | 0.00 | 0.00 | 0.00 | 54 | 1014.0 |
| 20260503182555 | 20 | 348 | 3.2 | 9.7 | 0.00 | 0.00 | 0.00 | 53 | 1014.1 |
| 20260503182055 | 20 | 5 | 3.2 | 9.7 | 0.00 | 0.00 | 0.00 | 52 | 1014.1 |
| 20260503181552 | 20 | 328 | 3.2 | 9.7 | 0.00 | 0.00 | 0.00 | 53 | 1014.1 |
| 20260503181055 | 20 | 13 | 3.2 | 12.9 | 0.00 | 0.00 | 0.00 | 55 | 1014.2 |
| 20260503180556 | 20 | 0 | 0.0 | 12.9 | 0.00 | 0.00 | 0.00 | 56 | 1014.1 |
| 20260503180058 | 20 | 162 | 3.2 | 12.9 | 0.00 | 0.00 | 0.00 | 54 | 1014.3 |
| 20260503175555 | 20 | 272 | 3.2 | 12.9 | 0.00 | 0.00 | 0.00 | 54 | 1014.4 |
| 20260503175055 | 19 | 286 | 3.2 | 12.9 | 0.00 | 0.00 | 0.00 | 54 | 1014.4 |
| 20260503174607 | 19 | 300 | 1.6 | 9.7 | 0.00 | 0.00 | 0.00 | 56 | 1014.3 |
| 20260503174114 | 19 | 352 | 1.6 | 11.3 | 0.00 | 0.00 | 0.00 | 58 | 1014.4 |
| 20260503173555 | 19 | 217 | 4.8 | 11.3 | 0.00 | 0.00 | 0.00 | 58 | 1014.5 |
| 20260503173106 | 18 | 325 | 1.6 | 8.0 | 0.00 | 0.00 | 0.00 | 58 | 1014.6 |
| 20260503172554 | 18 | 327 | 1.6 | 9.7 | 0.00 | 0.00 | 0.00 | 58 | 1014.6 |
| 20260503172054 | 18 | 327 | 3.2 | 11.3 | 0.00 | 0.00 | 0.00 | 59 | 1014.6 |
| 20260503171603 | 18 | 5 | 3.2 | 11.3 | 0.00 | 0.00 | 0.00 | 59 | 1014.6 |
| 20260503171055 | 17 | 260 | 1.6 | 12.9 | 0.00 | 0.00 | 0.00 | 61 | 1014.7 |
| 20260503170555 | 17 | 318 | 0.0 | 12.9 | 0.00 | 0.00 | 0.00 | 61 | 1014.7 |
| 20260503150555 | 11 | 295 | 0.0 | 4.8 | 0.00 | 0.00 | 0.00 | 84 | 1015.0 |
| 20260503131054 | 10 | 0 | 0.0 | 0.0 | 0.00 | 0.00 | 0.00 | 85 | 1014.8 |
| 20260503130552 | 10 | 0 | 0.0 | 0.0 | 0.00 | 0.00 | 0.00 | 85 | 1014.7 |
| 20260503130103 | 10 | 0 | 0.0 | 0.0 | 0.00 | 0.00 | 0.00 | 86 | 1014.6 |
| 20260503110554 | 10 | 0 | 0.0 | 0.0 | 0.00 | 0.00 | 0.00 | 82 | 1015.1 |
| 20260503100110 | 11 | 0 | 0.0 | 0.0 | 0.00 | 0.00 | 0.00 | 80 | 1015.1 |
| 20260503081606 | 12 | 0 | 0.0 | 0.0 | 0.00 | 0.00 | 0.00 | 76 | 1015.2 |
| 20260503081055 | 12 | 0 | 0.0 | 0.0 | 0.00 | 0.00 | 0.00 | 76 | 1015.2 |
| 20260503080558 | 12 | 0 | 0.0 | 0.0 | 0.00 | 0.00 | 0.00 | 76 | 1015.2 |
| 20260503072555 | 12 | 0 | 0.0 | 0.0 | 0.00 | 0.00 | 0.00 | 75 | 1015.0 |
| 20260503072055 | 12 | 0 | 0.0 | 0.0 | 0.00 | 0.00 | 0.00 | 74 | 1015.0 |
| 20260503071555 | 12 | 0 | 0.0 | 0.0 | 0.00 | 0.00 | 0.00 | 73 | 1015.0 |
| 20260503071056 | 12 | 0 | 0.0 | 0.0 | 0.00 | 0.00 | 0.00 | 74 | 1015.0 |
| 20260503070551 | 12 | 0 | 0.0 | 0.0 | 0.00 | 0.00 | 0.00 | 73 | 1015.0 |
| 20260503055055 | 14 | 0 | 0.0 | 0.0 | 0.00 | 0.00 | 0.00 | 70 | 1015.0 |
| 20260503054552 | 14 | 0 | 0.0 | 0.0 | 0.00 | 0.00 | 0.00 | 68 | 1014.9 |
| 20260503054055 | 14 | 0 | 0.0 | 0.0 | 0.00 | 0.00 | 0.00 | 68 | 1014.9 |
| 20260503053555 | 14 | 0 | 0.0 | 0.0 | 0.00 | 0.00 | 0.00 | 66 | 1015.0 |
| 20260503053055 | 14 | 0 | 0.0 | 0.0 | 0.00 | 0.00 | 0.00 | 65 | 1014.9 |
| 20260503052558 | 14 | 0 | 0.0 | 0.0 | 0.00 | 0.00 | 0.00 | 64 | 1015.0 |
| 20260503052051 | 15 | 0 | 0.0 | 0.0 | 0.00 | 0.00 | 0.00 | 65 | 1014.9 |
| 20260503051555 | 15 | 0 | 0.0 | 0.0 | 0.00 | 0.00 | 0.00 | 65 | 1014.9 |
| 20260503051100 | 15 | 0 | 0.0 | 0.0 | 0.00 | 0.00 | 0.00 | 64 | 1015.0 |
| 20260503050554 | 15 | 0 | 0.0 | 0.0 | 0.00 | 0.00 | 0.00 | 64 | 1015.0 |
| 20260503050055 | 15 | 0 | 0.0 | 0.0 | 0.00 | 0.00 | 0.00 | 63 | 1014.9 |
| 20260503045554 | 15 | 0 | 0.0 | 0.0 | 0.00 | 0.00 | 0.00 | 63 | 1014.9 |
| 20260503045055 | 15 | 0 | 0.0 | 0.0 | 0.00 | 0.00 | 0.00 | 62 | 1014.8 |
| 20260503044555 | 15 | 0 | 0.0 | 0.0 | 0.00 | 0.00 | 0.00 | 61 | 1014.7 |
| 20260503044055 | 16 | 0 | 0.0 | 0.0 | 0.00 | 0.00 | 0.00 | 60 | 1014.7 |
| 20260503043553 | 16 | 0 | 0.0 | 0.0 | 0.00 | 0.00 | 0.00 | 59 | 1014.6 |
| 20260503043051 | 16 | 0 | 0.0 | 0.0 | 0.00 | 0.00 | 0.00 | 58 | 1014.6 |
| 20260503042555 | 16 | 0 | 0.0 | 0.0 | 0.00 | 0.00 | 0.00 | 57 | 1014.5 |
| 20260503042055 | 16 | 0 | 0.0 | 0.0 | 0.00 | 0.00 | 0.00 | 57 | 1014.4 |
| 20260503041554 | 16 | 0 | 0.0 | 0.0 | 0.00 | 0.00 | 0.00 | 56 | 1014.5 |
| 20260503041055 | 16 | 0 | 0.0 | 0.0 | 0.00 | 0.00 | 0.00 | 57 | 1014.3 |
| 20260503040554 | 17 | 0 | 0.0 | 0.0 | 0.00 | 0.00 | 0.00 | 56 | 1014.3 |
| 20260503040059 | 17 | 0 | 0.0 | 0.0 | 0.00 | 0.00 | 0.00 | 56 | 1014.2 |
| 20260503035555 | 17 | 0 | 0.0 | 0.0 | 0.00 | 0.00 | 0.00 | 55 | 1014.1 |
| 20260503035055 | 17 | 0 | 0.0 | 0.0 | 0.00 | 0.00 | 0.00 | 55 | 1014.1 |
| 20260503034607 | 17 | 0 | 0.0 | 0.0 | 0.00 | 0.00 | 0.00 | 55 | 1014.0 |
| 20260503034055 | 17 | 0 | 0.0 | 0.0 | 0.00 | 0.00 | 0.00 | 54 | 1014.0 |
| 20260503033557 | 18 | 0 | 0.0 | 0.0 | 0.00 | 0.00 | 0.00 | 54 | 1013.8 |
| 20260503033057 | 18 | 0 | 0.0 | 0.0 | 0.00 | 0.00 | 0.00 | 54 | 1013.8 |
| 20260503032554 | 18 | 0 | 0.0 | 1.6 | 0.00 | 0.00 | 0.00 | 55 | 1013.7 |
| 20260503032053 | 18 | 0 | 0.0 | 3.2 | 0.00 | 0.00 | 0.00 | 55 | 1013.8 |
| 20260503031555 | 18 | 0 | 0.0 | 6.4 | 0.00 | 0.00 | 0.00 | 55 | 1013.7 |
| 20260503031054 | 18 | 0 | 0.0 | 6.4 | 0.00 | 0.00 | 0.00 | 57 | 1013.6 |
| 20260503030554 | 19 | 0 | 1.6 | 6.4 | 0.00 | 0.00 | 0.00 | 50 | 1013.5 |
| 20260503030053 | 19 | 299 | 0.0 | 4.8 | 0.00 | 0.00 | 0.00 | 57 | 1013.5 |
| 20260503025555 | 19 | 323 | 0.0 | 1.6 | 0.00 | 0.00 | 0.00 | 53 | 1013.5 |
| 20260503025055 | 20 | 0 | 0.0 | 1.6 | 0.00 | 0.00 | 0.00 | 55 | 1013.6 |
| 20260503024555 | 20 | 0 | 0.0 | 1.6 | 0.00 | 0.00 | 0.00 | 53 | 1013.5 |
| 20260503024055 | 20 | 0 | 0.0 | 3.2 | 0.00 | 0.00 | 0.00 | 55 | 1013.5 |
| 20260503023554 | 20 | 0 | 0.0 | 12.9 | 0.00 | 0.00 | 0.00 | 53 | 1013.5 |
| 20260503023053 | 20 | 0 | 3.2 | 14.5 | 0.00 | 0.00 | 0.00 | 48 | 1013.4 |
| 20260503022554 | 20 | 0 | 1.6 | 14.5 | 0.00 | 0.00 | 0.00 | 48 | 1013.3 |
| 20260503022057 | 21 | 11 | 1.6 | 14.5 | 0.00 | 0.00 | 0.00 | 49 | 1013.4 |
| 20260503021553 | 21 | 0 | 1.6 | 8.0 | 0.00 | 0.00 | 0.00 | 52 | 1013.4 |
| 20260503021055 | 21 | 78 | 3.2 | 12.9 | 0.00 | 0.00 | 0.00 | 50 | 1013.4 |
| 20260503020555 | 21 | 339 | 3.2 | 12.9 | 0.00 | 0.00 | 0.00 | 50 | 1013.4 |
| 20260503020057 | 21 | 323 | 3.2 | 12.9 | 0.00 | 0.00 | 0.00 | 50 | 1013.3 |
| 20260503015556 | 21 | 306 | 3.2 | 9.7 | 0.00 | 0.00 | 0.00 | 51 | 1013.5 |
| 20260503015058 | 21 | 342 | 1.6 | 9.7 | 0.00 | 0.00 | 0.00 | 51 | 1013.4 |
| 20260503014715 | 21 | 316 | 3.2 | 17.7 | 0.00 | 0.00 | 0.00 | 51 | 1013.4 |
| 20260503014149 | 21 | 21 | 6.4 | 17.7 | 0.00 | 0.00 | 0.00 | 50 | 1013.4 |
| 20260503013610 | 21 | 320 | 3.2 | 12.9 | 0.00 | 0.00 | 0.00 | 51 | 1013.4 |
| 20260503013053 | 22 | 0 | 3.2 | 16.1 | 0.00 | 0.00 | 0.00 | 51 | 1013.4 |
| 20260503012557 | 22 | 360 | 3.2 | 16.1 | 0.00 | 0.00 | 0.00 | 50 | 1013.4 |
| 20260503012054 | 22 | 352 | 3.2 | 12.9 | 0.00 | 0.00 | 0.00 | 50 | 1013.4 |
| 20260503011555 | 22 | 0 | 3.2 | 14.5 | 0.00 | 0.00 | 0.00 | 50 | 1013.5 |
| 20260503011055 | 22 | 5 | 3.2 | 14.5 | 0.00 | 0.00 | 0.00 | 51 | 1013.5 |
| 20260503010554 | 22 | 279 | 4.8 | 14.5 | 0.00 | 0.00 | 0.00 | 50 | 1013.5 |
| 20260503010059 | 22 | 320 | 4.8 | 14.5 | 0.00 | 0.00 | 0.00 | 51 | 1013.5 |
| 20260503005555 | 22 | 0 | 3.2 | 9.7 | 0.00 | 0.00 | 0.00 | 52 | 1013.5 |
| 20260503005056 | 22 | 324 | 3.2 | 9.7 | 0.00 | 0.00 | 0.00 | 52 | 1013.6 |
| 20260503004553 | 22 | 320 | 3.2 | 16.1 | 0.00 | 0.00 | 0.00 | 51 | 1013.6 |
| 20260503004055 | 22 | 9 | 8.0 | 16.1 | 0.00 | 0.00 | 0.00 | 51 | 1013.6 |
| 20260503003555 | 22 | 5 | 6.4 | 16.1 | 0.00 | 0.00 | 0.00 | 52 | 1013.6 |
| 20260503003105 | 22 | 360 | 1.6 | 16.1 | 0.00 | 0.00 | 0.00 | 53 | 1013.6 |
| 20260503002555 | 22 | 352 | 4.8 | 16.1 | 0.00 | 0.00 | 0.00 | 53 | 1013.6 |
| 20260503002055 | 22 | 42 | 4.8 | 16.1 | 0.00 | 0.00 | 0.00 | 52 | 1013.5 |
| 20260503001610 | 22 | 338 | 4.8 | 14.5 | 0.00 | 0.00 | 0.00 | 52 | 1013.5 |
| 20260503001054 | 22 | 352 | 4.8 | 12.9 | 0.00 | 0.00 | 0.00 | 54 | 1013.6 |
| 20260503000556 | 22 | 5 | 3.2 | 16.1 | 0.00 | 0.00 | 0.00 | 53 | 1013.6 |
| 20260503000058 | 22 | 13 | 1.6 | 16.1 | 0.00 | 0.00 | 0.00 | 52 | 1013.7 |
| 20260502235554 | 22 | 51 | 1.6 | 16.1 | 0.00 | 0.00 | 0.00 | 53 | 1013.7 |
| 20260502235055 | 22 | 0 | 3.2 | 16.1 | 0.00 | 0.00 | 0.00 | 53 | 1013.8 |
| 20260502234559 | 22 | 352 | 4.8 | 16.1 | 0.00 | 0.00 | 0.00 | 53 | 1013.9 |
| 20260502234056 | 22 | 340 | 4.8 | 12.9 | 0.00 | 0.00 | 0.00 | 54 | 1014.0 |
| 20260502233556 | 22 | 40 | 3.2 | 12.9 | 0.00 | 0.00 | 0.00 | 53 | 1014.0 |
| 20260502233059 | 22 | 17 | 3.2 | 12.9 | 0.00 | 0.00 | 0.00 | 53 | 1014.1 |
| 20260502232555 | 22 | 288 | 4.8 | 12.9 | 0.00 | 0.00 | 0.00 | 54 | 1014.2 |
| 20260502232055 | 22 | 351 | 4.8 | 14.5 | 0.00 | 0.00 | 0.00 | 52 | 1014.3 |
| 20260502231603 | 22 | 299 | 3.2 | 14.5 | 0.00 | 0.00 | 0.00 | 54 | 1014.3 |
| 20260502231055 | 23 | 304 | 3.2 | 16.1 | 0.00 | 0.00 | 0.00 | 52 | 1014.4 |
| 20260502230555 | 22 | 97 | 6.4 | 16.1 | 0.00 | 0.00 | 0.00 | 52 | 1014.5 |
| 20260502230056 | 22 | 13 | 6.4 | 19.3 | 0.00 | 0.00 | 0.00 | 52 | 1014.6 |
| 20260502225554 | 22 | 352 | 6.4 | 19.3 | 0.00 | 0.00 | 0.00 | 52 | 1014.7 |
| 20260502225055 | 22 | 329 | 3.2 | 17.7 | 0.00 | 0.00 | 0.00 | 50 | 1014.7 |
| 20260502224553 | 22 | 19 | 6.4 | 17.7 | 0.00 | 0.00 | 0.00 | 50 | 1014.9 |
| 20260502224055 | 22 | 22 | 3.2 | 17.7 | 0.00 | 0.00 | 0.00 | 51 | 1014.8 |
| 20260502223555 | 22 | 284 | 0.0 | 17.7 | 0.00 | 0.00 | 0.00 | 52 | 1014.9 |
| 20260502223054 | 22 | 313 | 6.4 | 17.7 | 0.00 | 0.00 | 0.00 | 52 | 1015.0 |
| 20260502222558 | 22 | 0 | 1.6 | 19.3 | 0.00 | 0.00 | 0.00 | 53 | 1015.0 |
| 20260502222054 | 22 | 0 | 3.2 | 19.3 | 0.00 | 0.00 | 0.00 | 51 | 1015.1 |
| 20260502221555 | 22 | 265 | 3.2 | 19.3 | 0.00 | 0.00 | 0.00 | 53 | 1015.2 |
| 20260502221055 | 22 | 30 | 3.2 | 16.1 | 0.00 | 0.00 | 0.00 | 52 | 1015.3 |
| 20260502220555 | 22 | 25 | 3.2 | 16.1 | 0.00 | 0.00 | 0.00 | 52 | 1015.3 |
| 20260502220055 | 22 | 231 | 1.6 | 12.9 | 0.00 | 0.00 | 0.00 | 54 | 1015.4 |
| 20260502215555 | 22 | 0 | 1.6 | 14.5 | 0.00 | 0.00 | 0.00 | 54 | 1015.5 |
| 20260502215056 | 21 | 213 | 6.4 | 14.5 | 0.00 | 0.00 | 0.00 | 53 | 1015.6 |
| 20260502214603 | 21 | 284 | 4.8 | 16.1 | 0.00 | 0.00 | 0.00 | 56 | 1015.6 |
| 20260502214055 | 21 | 332 | 3.2 | 16.1 | 0.00 | 0.00 | 0.00 | 55 | 1015.6 |
| 20260502213552 | 21 | 248 | 3.2 | 16.1 | 0.00 | 0.00 | 0.00 | 56 | 1015.6 |
| 20260502213054 | 21 | 0 | 4.8 | 16.1 | 0.00 | 0.00 | 0.00 | 56 | 1015.6 |
| 20260502212552 | 21 | 309 | 4.8 | 16.1 | 0.00 | 0.00 | 0.00 | 57 | 1015.6 |